Time,TemperatureF,DewpointF,PressureIn,WindDirection,WindDirectionDegrees,WindSpeedMPH,WindSpeedGustMPH,Humidity,HourlyPrecipIn,Conditions,Clouds,dailyrainin,SoftwareType,DateUTC
2013-03-26 00:06:00,62.8,38.1,30.00,WSW,247,0.0,-999.0,40,-99.99,,,0.00,Acu-Link.com,2013-03-26 04:06:00,
2013-03-26 00:21:00,62.4,38.4,30.00,WSW,247,3.7,-999.0,41,-99.99,,,0.00,Acu-Link.com,2013-03-26 04:21:00,
2013-03-26 00:36:00,62.2,38.2,30.00,WSW,247,4.2,-999.0,41,-99.99,,,0.00,Acu-Link.com,2013-03-26 04:36:00,
2013-03-26 01:36:00,60.6,37.4,30.01,SW,225,4.7,-999.0,42,-99.99,,,0.00,Acu-Link.com,2013-03-26 05:36:00,
2013-03-26 01:51:00,60.1,37.5,30.01,SW,225,1.7,-999.0,43,-99.99,,,0.00,Acu-Link.com,2013-03-26 05:51:00,
2013-03-26 02:21:00,58.6,35.6,30.03,SW,225,6.8,-999.0,42,-99.99,,,0.00,Acu-Link.com,2013-03-26 06:21:00,
2013-03-26 02:37:00,58.1,35.1,30.03,West,270,5.8,-999.0,42,-99.99,,,0.00,Acu-Link.com,2013-03-26 06:37:00,
2013-03-26 02:52:00,57.7,35.4,30.03,West,270,2.2,-999.0,43,-99.99,,,0.00,Acu-Link.com,2013-03-26 06:52:00,
2013-03-26 03:07:00,57.2,35.5,30.02,ESE,112,3.7,-999.0,44,-99.99,,,0.00,Acu-Link.com,2013-03-26 07:07:00,
2013-03-26 03:22:00,57.2,35.5,30.02,West,270,4.2,-999.0,44,-99.99,,,0.00,Acu-Link.com,2013-03-26 07:22:00,
2013-03-26 03:37:00,56.7,35.0,30.02,WSW,247,5.3,-999.0,44,-99.99,,,0.00,Acu-Link.com,2013-03-26 07:37:00,
2013-03-26 03:52:00,56.7,35.6,30.02,SW,225,4.2,-999.0,45,-99.99,,,0.00,Acu-Link.com,2013-03-26 07:52:00,
2013-03-26 04:07:00,57.0,35.9,30.04,SW,225,3.7,-999.0,45,-99.99,,,0.00,Acu-Link.com,2013-03-26 08:07:00,
2013-03-26 04:23:00,57.0,35.9,30.03,ENE,67,3.7,-999.0,45,-99.99,,,0.00,Acu-Link.com,2013-03-26 08:23:00,
2013-03-26 04:38:00,57.0,36.4,30.03,WSW,247,4.7,-999.0,46,-99.99,,,0.00,Acu-Link.com,2013-03-26 08:38:00,
2013-03-26 04:53:00,56.5,37.6,30.03,West,270,4.7,-999.0,49,-99.99,,,0.00,Acu-Link.com,2013-03-26 08:53:00,
2013-03-26 05:08:00,56.3,37.9,30.03,West,270,2.2,-999.0,50,-99.99,,,0.00,Acu-Link.com,2013-03-26 09:08:00,
2013-03-26 05:23:00,56.3,36.9,30.04,SW,225,2.7,-999.0,48,-99.99,,,0.00,Acu-Link.com,2013-03-26 09:23:00,
2013-03-26 05:38:00,56.3,35.8,30.04,WSW,247,2.2,-999.0,46,-99.99,,,0.00,Acu-Link.com,2013-03-26 09:38:00,
2013-03-26 05:53:00,56.3,35.2,30.04,SW,225,2.2,-999.0,45,-99.99,,,0.00,Acu-Link.com,2013-03-26 09:53:00,
2013-03-26 06:08:00,56.1,35.1,30.06,WSW,247,4.2,-999.0,45,-99.99,,,0.00,Acu-Link.com,2013-03-26 10:08:00,
2013-03-26 06:24:00,55.9,34.9,30.06,SW,225,4.2,-999.0,45,-99.99,,,0.00,Acu-Link.com,2013-03-26 10:24:00,
2013-03-26 06:39:00,55.4,34.4,30.07,SW,225,2.2,-999.0,45,-99.99,,,0.00,Acu-Link.com,2013-03-26 10:39:00,
2013-03-26 06:54:00,55.0,35.1,30.08,SSE,157,1.1,-999.0,47,-99.99,,,0.00,Acu-Link.com,2013-03-26 10:54:00,
2013-03-26 07:09:00,54.7,35.9,30.08,SE,135,3.2,-999.0,49,-99.99,,,0.00,Acu-Link.com,2013-03-26 11:09:00,
2013-03-26 07:24:00,54.3,35.6,30.08,NW,315,1.1,-999.0,49,-99.99,,,0.00,Acu-Link.com,2013-03-26 11:24:00,
2013-03-26 07:39:00,54.1,35.4,30.09,NNW,337,1.1,-999.0,49,-99.99,,,0.00,Acu-Link.com,2013-03-26 11:39:00,
2013-03-26 07:54:00,54.1,35.9,30.10,NW,315,4.7,-999.0,50,-99.99,,,0.00,Acu-Link.com,2013-03-26 11:54:00,
2013-03-26 08:09:00,54.1,35.4,30.09,East,90,2.7,-999.0,49,-99.99,,,0.00,Acu-Link.com,2013-03-26 12:09:00,
2013-03-26 08:24:00,56.5,35.4,30.10,ESE,112,3.2,-999.0,45,-99.99,,,0.00,Acu-Link.com,2013-03-26 12:24:00,
2013-03-26 08:40:00,57.9,36.1,30.11,NW,315,6.3,-999.0,44,-99.99,,,0.00,Acu-Link.com,2013-03-26 12:40:00,
2013-03-26 08:55:00,57.9,34.3,30.11,SE,135,5.8,-999.0,41,-99.99,,,0.00,Acu-Link.com,2013-03-26 12:55:00,
2013-03-26 09:10:00,59.0,35.3,30.13,SW,225,3.7,-999.0,41,-99.99,,,0.00,Acu-Link.com,2013-03-26 13:10:00,
2013-03-26 09:25:00,59.4,35.1,30.13,South,180,3.7,-999.0,40,-99.99,,,0.00,Acu-Link.com,2013-03-26 13:25:00,
2013-03-26 09:40:00,59.4,33.8,30.14,ENE,67,5.3,-999.0,38,-99.99,,,0.00,Acu-Link.com,2013-03-26 13:40:00,
2013-03-26 09:55:00,61.2,36.0,30.14,SW,225,7.8,-999.0,39,-99.99,,,0.00,Acu-Link.com,2013-03-26 13:55:00,
2013-03-26 10:11:00,61.0,35.9,30.15,East,90,2.7,-999.0,39,-99.99,,,0.00,Acu-Link.com,2013-03-26 14:11:00,
2013-03-26 10:26:00,62.1,36.8,30.14,SE,135,8.3,-999.0,39,-99.99,,,0.00,Acu-Link.com,2013-03-26 14:26:00,
2013-03-26 11:11:00,63.9,38.5,30.14,ESE,112,3.2,-999.0,39,-99.99,,,0.00,Acu-Link.com,2013-03-26 15:11:00,
2013-03-26 11:41:00,64.2,36.0,30.14,WNW,292,6.3,-999.0,35,-99.99,,,0.00,Acu-Link.com,2013-03-26 15:41:00,
2013-03-26 12:11:00,65.7,35.0,30.15,SSE,157,4.7,-999.0,32,-99.99,,,0.00,Acu-Link.com,2013-03-26 16:11:00,
2013-03-26 12:27:00,66.7,36.7,30.14,SW,225,4.2,-999.0,33,-99.99,,,0.00,Acu-Link.com,2013-03-26 16:27:00,
2013-03-26 12:42:00,67.1,33.8,30.15,WSW,247,5.8,-999.0,29,-99.99,,,0.00,Acu-Link.com,2013-03-26 16:42:00,
2013-03-26 12:57:00,67.3,34.8,30.13,SW,225,4.7,-999.0,30,-99.99,,,0.00,Acu-Link.com,2013-03-26 16:57:00,
2013-03-26 13:12:00,67.5,38.1,30.13,SSW,202,3.7,-999.0,34,-99.99,,,0.00,Acu-Link.com,2013-03-26 17:12:00,
2013-03-26 13:27:00,67.1,39.2,30.13,SW,225,3.2,-999.0,36,-99.99,,,0.00,Acu-Link.com,2013-03-26 17:27:00,
2013-03-26 13:42:00,68.5,39.8,30.13,West,270,7.8,-999.0,35,-99.99,,,0.00,Acu-Link.com,2013-03-26 17:42:00,
2013-03-26 13:57:00,67.3,38.7,30.13,SSW,202,5.8,-999.0,35,-99.99,,,0.00,Acu-Link.com,2013-03-26 17:57:00,
2013-03-26 14:12:00,68.2,39.5,30.12,WSW,247,6.8,-999.0,35,-99.99,,,0.00,Acu-Link.com,2013-03-26 18:12:00,
2013-03-26 14:27:00,68.2,38.8,30.11,WSW,247,6.3,-999.0,34,-99.99,,,0.00,Acu-Link.com,2013-03-26 18:27:00,
2013-03-26 14:43:00,68.2,38.0,30.12,SW,225,6.3,-999.0,33,-99.99,,,0.00,Acu-Link.com,2013-03-26 18:43:00,
2013-03-26 14:58:00,67.8,39.1,30.13,NW,315,3.7,-999.0,35,-99.99,,,0.00,Acu-Link.com,2013-03-26 18:58:00,
2013-03-26 15:13:00,66.7,38.2,30.12,SW,225,5.3,-999.0,35,-99.99,,,0.00,Acu-Link.com,2013-03-26 19:13:00,
2013-03-26 15:28:00,67.5,39.6,30.11,South,180,3.7,-999.0,36,-99.99,,,0.00,Acu-Link.com,2013-03-26 19:28:00,
2013-03-26 15:43:00,66.7,36.7,30.11,WSW,247,6.3,-999.0,33,-99.99,,,0.00,Acu-Link.com,2013-03-26 19:43:00,
2013-03-26 15:58:00,66.6,38.1,30.12,South,180,9.4,-999.0,35,-99.99,,,0.00,Acu-Link.com,2013-03-26 19:58:00,
2013-03-26 16:14:00,66.4,36.4,30.12,SW,225,6.8,-999.0,33,-99.99,,,0.00,Acu-Link.com,2013-03-26 20:14:00,
2013-03-26 16:29:00,66.6,38.1,30.11,WSW,247,7.3,-999.0,35,-99.99,,,0.00,Acu-Link.com,2013-03-26 20:29:00,
2013-03-26 16:44:00,66.0,36.8,30.11,WSW,247,6.3,-999.0,34,-99.99,,,0.00,Acu-Link.com,2013-03-26 20:44:00,
2013-03-26 16:59:00,66.4,38.6,30.11,SW,225,5.8,-999.0,36,-99.99,,,0.00,Acu-Link.com,2013-03-26 20:59:00,
2013-03-26 17:14:00,66.6,39.5,30.10,SW,225,7.8,-999.0,37,-99.99,,,0.00,Acu-Link.com,2013-03-26 21:14:00,
2013-03-26 17:29:00,66.0,39.0,30.11,West,270,5.8,-999.0,37,-99.99,,,0.00,Acu-Link.com,2013-03-26 21:29:00,
2013-03-26 18:00:00,65.7,38.7,30.12,WSW,247,5.3,-999.0,37,-99.99,,,0.00,Acu-Link.com,2013-03-26 22:00:00,
2013-03-26 18:15:00,65.3,38.4,30.12,WSW,247,4.7,-999.0,37,-99.99,,,0.00,Acu-Link.com,2013-03-26 22:15:00,
2013-03-26 18:30:00,64.8,38.6,30.11,WSW,247,5.8,-999.0,38,-99.99,,,0.00,Acu-Link.com,2013-03-26 22:30:00,
2013-03-26 18:45:00,64.2,38.7,30.12,WSW,247,5.3,-999.0,39,-99.99,,,0.00,Acu-Link.com,2013-03-26 22:45:00,
2013-03-26 19:00:00,63.5,37.4,30.12,WSW,247,5.3,-999.0,38,-99.99,,,0.00,Acu-Link.com,2013-03-26 23:00:00,
2013-03-26 19:15:00,62.6,35.3,30.13,SW,225,5.8,-999.0,36,-99.99,,,0.00,Acu-Link.com,2013-03-26 23:15:00,
2013-03-26 19:30:00,61.7,36.5,30.14,SW,225,4.2,-999.0,39,-99.99,,,0.00,Acu-Link.com,2013-03-26 23:30:00,
2013-03-26 19:45:00,61.0,36.5,30.16,WSW,247,4.7,-999.0,40,-99.99,,,0.00,Acu-Link.com,2013-03-26 23:45:00,
2013-03-26 20:01:00,60.1,35.7,30.17,South,180,3.7,-999.0,40,-99.99,,,0.00,Acu-Link.com,2013-03-27 00:01:00,
2013-03-26 20:16:00,59.4,35.1,30.17,SW,225,3.7,-999.0,40,-99.99,,,0.00,Acu-Link.com,2013-03-27 00:16:00,
2013-03-26 21:16:00,57.0,32.9,30.19,SW,225,3.7,-999.0,40,-99.99,,,0.00,Acu-Link.com,2013-03-27 01:16:00,
2013-03-26 21:31:00,56.5,32.5,30.20,SSW,202,3.7,-999.0,40,-99.99,,,0.00,Acu-Link.com,2013-03-27 01:31:00,
2013-03-26 22:01:00,55.4,32.1,30.21,SW,225,4.7,-999.0,41,-99.99,,,0.00,Acu-Link.com,2013-03-27 02:01:00,
2013-03-26 22:16:00,54.9,31.6,30.22,West,270,0.0,-999.0,41,-99.99,,,0.00,Acu-Link.com,2013-03-27 02:16:00,
2013-03-26 22:32:00,54.0,30.8,30.23,ESE,112,3.7,-999.0,41,-99.99,,,0.00,Acu-Link.com,2013-03-27 02:32:00,
2013-03-26 22:47:00,53.8,31.3,30.23,ENE,67,2.2,-999.0,42,-99.99,,,0.00,Acu-Link.com,2013-03-27 02:47:00,
2013-03-26 23:02:00,53.2,30.7,30.24,SW,225,3.7,-999.0,42,-99.99,,,0.00,Acu-Link.com,2013-03-27 03:02:00,
2013-03-26 23:17:00,52.9,31.0,30.24,WSW,247,2.2,-999.0,43,-99.99,,,0.00,Acu-Link.com,2013-03-27 03:17:00,
2013-03-26 23:32:00,52.3,31.0,30.24,SW,225,0.0,-999.0,44,-99.99,,,0.00,Acu-Link.com,2013-03-27 03:32:00,
2013-03-26 23:47:00,51.8,31.7,30.25,WSW,247,0.0,-999.0,46,-99.99,,,0.00,Acu-Link.com,2013-03-27 03:47:00,